{"data":{"norad_id":62206,"epoch":"2026-09-21T06:00:41.740704Z","epoch_age_seconds":112763,"freshness":"FRESH","line1":"1 62206U 24229Q   26264.25048311  .00011849  00000+0  43928-3 0  9990","line2":"2 62206  42.9970 245.9610 0001072 270.6616  89.4113 15.27590128100472","mean_motion":15.27590128,"eccentricity":0.0001072,"inclination_deg":42.997,"raan_deg":245.961,"arg_perigee_deg":270.6616,"mean_anomaly_deg":89.4113,"bstar":0.00043928,"rev_number":10047,"period_min":94.266123720328,"perigee_km":482.28325343321,"apogee_km":483.75428523015,"semimajor_km":6861.1557693317,"source":"CELESTRAK","updated_at":"2026-09-22T09:00:49.541750Z"}}